Regional Weather Roundup
Issued by NWS Newport/Morehead, NC

Current Version | Previous Version | Graphics & Text | Print | Product List | Glossary On
Versions: 1 2 3 4 5 6 7 8 9 10 11 12 13 14 15 16 17 18 19 20 21 22 23 24 25 26 27 28 29 30 31 32 33 34 35 36 37 38 39 40 41 42 43 44 45 46 47 48 49 50
340 ASUS42 KMHX 221613 RWRMHX WEATHER ROUNDUP FOR EASTERN NORTH CAROLINA NATIONAL WEATHER SERVICE NEWPORT/MOREHEAD CITY NC 1200 PM EDT WED MAR 22 2017 NOTE: "FAIR" INDICATES FEW OR NO CLOUDS BELOW 12,000 FEET WITH NO SIGNIFICANT WEATHER AND/OR OBSTRUCTIONS TO VISIBILITY NCZ015>017-031-032-045>047-102-103-221700- NORTH COAST CITY SKY/WX TMP DP RH WIND PRES REMARKS EDENTON NOT AVBL ELIZABETH CITY CLOUDY 52 36 54 N18G30 30.12R KITTY HAWK NOT AVBL MANTEO CLOUDY 52 37 56 NE25G32 30.10R $$ NCZ045>047-081-094-103-104-221700- CENTRAL COAST CITY SKY/WX TMP DP RH WIND PRES REMARKS FRISCO PTSUNNY 57 49 74 N10G20 30.07R HAZE $$ NCZ095-097-098-100-101-221700- SOUTHERN COAST CITY SKY/WX TMP DP RH WIND PRES REMARKS BEAUFORT CLOUDY 60 48 64 NE17G26 30.06R CEDAR ISLAND NOT AVBL JACKSONVILLE CLOUDY 59 50 72 N15G22 30.08R PINEY ISLAND CLOUDY N/A N/A N/A N15 30.07 WILMINGTON CLOUDY 64 47 53 N17G25 30.08R $$ NCZ011>013-027>030-043-044-078>080-089-090>093-098-221700- COASTAL PLAIN CITY SKY/WX TMP DP RH WIND PRES REMARKS AHOSKIE NOT AVBL CLINTON CLOUDY 63 48 57 N9G16 30.11R ELIZABETHTOWN PTSUNNY 61 50 67 N6 30.10R GOLDSBORO PTSUNNY 61 45 56 N8 30.09R GREENVILLE CLOUDY 57 45 62 NE13 30.13R HAVELOCK NOT AVBL KENANSVILLE CLOUDY 61 48 63 N10G20 30.10S KINSTON CLOUDY 59 50 72 N10 30.11R NEW BERN CLOUDY 57 48 72 N12 30.10R RICHLANDS CLOUDY 58 49 72 N12 30.10R ROCKY MOUNT CLOUDY 60 42 51 N17G23 30.12R WASHINGTON PTSUNNY 57 46 65 N16 30.11R WHITEVILLE MOSUNNY 64 48 57 N8 30.09R $$ AMZ130-135-150-152-154-156-158-170-250-252-270-ANZ085-086-088-633-658-670-221700- MARINE OBSERVATIONS STATION/POSITION TIME TEMP WIND PRES WAVE SWELL AIR SEA DIR/SP/G HT/PER HT/PER (UTC) (F) (DEG/KT/KT) (MB) (FT/S) (FT/S) CHESAPEAKE LIGHT NOT AVBL 64 E VA BEACH 1550 48 48 10/ 25/ 29 1018.3 6/ 4 3/11 DUCK 1548 49 48 10/ 26/ 31 1018.6 2 E DUCK 1600 48 N/A 5/12 2/12 OREGON INLET 1536 52 51 360/ 17/ 24 1018.2 13E OREGON INLT NOT AVBL HATTERAS CG 1548 52 54 350/ 18/ 21 1017.7 DIAMOND BUOY 1550 57 74 20/ 27/ 33 1016.5 7/11 5/11 CAPE LOOKOUT 1600 57 10/ 19/ 23 1017.6 BEAUFORT LAB 1548 57 53 10/ 17/ 21 1017.0 30 SE NEW RVR IN 1508 56 30/ 19/ 25 1016.8 30 SE NEW RVR IN 1543 64 N/A 5/ 7 2/11 27 SE WRIGHTSVLE 1508 57 64 50/ 19/ 27 1016.2 5 SE WRIGHTSVLE 1508 56 56 30/ 14/ 21 1017.5 225 S CAPE HAT 1550 73 75 240/ 27/ 35 1013.8 10/ 7 41 SE CHARLESTON 1550 63 66 360/ 17/ 21 1017.1 3/ 6 2/ 6 $$

USA.gov is the U.S. government's official web portal to all federal, state and local government web resources and services.